User: anonymous   Login
Location: Fiddletown
(38.4917°N, 120.6633°W)
Time: 12:04:09
(UTC-08:00)
Language:

Envisat - Orbit

View from above orbital plane
View from above orbital plane
View from above satellite
View from above satellite

Ground track
Ground track

The orbit data is extracted from the following two-line orbital elements,

1 27386U 02009A   15065.51011816  .00000074  00000-0  38651-4 0  9995
2 27386 098.3473 128.9532 0001145 078.8189 281.3128 14.37791891681273
Epoch (UTC): 06 March 2015 12:14:34
Eccentricity: 0.0001145
inclination: 98.3473°
perigee height: 765 km
apogee height: 766 km
right ascension of ascending node: 128.9532°
argument of perigee: 78.8189°
revolutions per day: 14.37791891
mean anomaly at epoch: 281.3128°
orbit number at epoch: 68127

The dashed part of the orbit path shows where the satellite is in the earth's shadow,  

DLR